TimeCST,TemperatureF,Dew PointF,Humidity,Sea Level PressureIn,VisibilityMPH,Wind Direction,Wind SpeedMPH,Gust SpeedMPH,PrecipitationIn,Events,Conditions,WindDirDegrees,DateUTC
12:53 AM,30.0,27.0,88,30.25,10.0,Calm,Calm,-,N/A,,Clear,0,2013-01-08 06:53:00
1:53 AM,32.0,28.0,85,30.24,10.0,Calm,Calm,-,N/A,,Clear,0,2013-01-08 07:53:00
2:53 AM,30.0,28.0,92,30.24,10.0,NNE,3.5,-,N/A,,Clear,30,2013-01-08 08:53:00
3:53 AM,30.0,27.0,88,30.25,10.0,Calm,Calm,-,N/A,,Clear,0,2013-01-08 09:53:00
4:53 AM,28.0,26.1,92,30.24,10.0,ENE,3.5,-,N/A,,Clear,60,2013-01-08 10:53:00
5:53 AM,28.9,26.1,89,30.25,10.0,Calm,Calm,-,N/A,,Clear,0,2013-01-08 11:53:00
6:53 AM,30.9,28.0,89,30.27,10.0,NE,3.5,-,N/A,,Clear,50,2013-01-08 12:53:00
7:53 AM,32.0,28.9,88,30.30,10.0,NE,4.6,-,N/A,,Clear,40,2013-01-08 13:53:00
8:53 AM,37.0,33.1,86,30.31,10.0,Calm,Calm,-,N/A,,Clear,0,2013-01-08 14:53:00
9:53 AM,48.0,36.0,63,30.31,10.0,South,5.8,-,N/A,,Clear,170,2013-01-08 15:53:00
10:53 AM,51.1,37.9,61,30.30,10.0,SSW,11.5,-,N/A,,Clear,200,2013-01-08 16:53:00
11:53 AM,54.0,39.9,59,30.26,10.0,South,8.1,-,N/A,,Clear,190,2013-01-08 17:53:00
12:53 PM,57.9,39.9,51,30.24,10.0,SSW,8.1,-,N/A,,Clear,200,2013-01-08 18:53:00
1:53 PM,57.9,37.9,47,30.21,10.0,SSE,6.9,-,N/A,,Clear,160,2013-01-08 19:53:00
2:53 PM,59.0,39.0,48,30.22,10.0,SSW,6.9,-,N/A,,Clear,200,2013-01-08 20:53:00
3:53 PM,57.9,39.0,49,30.22,10.0,South,4.6,-,N/A,,Clear,180,2013-01-08 21:53:00
4:53 PM,55.9,39.9,55,30.22,10.0,Calm,Calm,-,N/A,,Mostly Cloudy,0,2013-01-08 22:53:00
5:53 PM,54.0,39.9,59,30.21,10.0,SE,3.5,-,N/A,,Clear,140,2013-01-08 23:53:00
6:53 PM,55.0,41.0,59,30.20,10.0,SSE,6.9,-,N/A,,Clear,160,2013-01-09 00:53:00
7:53 PM,54.0,42.1,64,30.20,10.0,SE,5.8,-,N/A,,Clear,140,2013-01-09 01:53:00
8:53 PM,53.1,43.0,69,30.20,10.0,SSE,3.5,-,N/A,,Clear,160,2013-01-09 02:53:00
9:53 PM,53.1,44.1,71,30.21,10.0,Calm,Calm,-,N/A,,Mostly Cloudy,0,2013-01-09 03:53:00
10:53 PM,53.1,45.0,74,30.24,10.0,Calm,Calm,-,N/A,,Overcast,0,2013-01-09 04:53:00
11:53 PM,53.1,45.0,74,30.24,10.0,SSE,5.8,-,N/A,,Overcast,150,2013-01-09 05:53:00